International Virtual Aviation Organisation

Russian Federation and Kazakhstan MCD

 

Карточка аэропорта UATT

Внимание!
Информация на этой странице в стадии наполнения.
Если вы не увидели какой-то информации, или заметили неточность - пожалуйста сообщите нам!
Спасибо!
Команда RU-STAFF
Название аэропортаАктобе
Название аэропорта (англ.)Aktobe
Превышение738 ft. (224.9 m.)
Координаты50°14.748', 57°12.402'
Высота перехода2710
Эшелон переходаFL40
Коды ответчика3440-3447, 3540-3547
Зона ОрВДАктобе РПИ (UATT)
Данные METARUATT 060700Z 26006MPS 9999 -SN BKN005 OVC019 01/M01 Q1013 R30/920545 NOSIG RMK QBB170 QFE740/0986
Проноз погоды (TAF)UATT 060502Z 0606/0706 27008MPS 3100 -SHSNRA BR OVC005 BKN015CB TX02/0624Z TNM00/0613Z TEMPO 0606/0612 25003MPS 0500 FG VV002 TEMPO 0612/0618 22008MPS 1000 OVC003 BKN011CB TEMPO 0618/0706 20018MPS 1000
NOTAMshow/hide NOTAM
AWOS   TABLE

Информация о ВПП

ВПП Длина ВПП (м.) Покрытие Курс ВПП Частота ILS
133202Бетон135111.7
313202Бетон315111.7

Диспетчерские позиции




Спутниковое изображение